Tracking 21472 objects as of 22-Sep-2020
HD Live streaming from Space Station
objects crossing your sky now

STARLINK-1486

Track STARLINK-1486 now!
10-day predictions
STARLINK-1486 is classified as:


NORAD ID: 45757
Int'l Code: 2020-038AD
Perigee: 555.8 km
Apogee: 557.9 km
Inclination: 53.0 °
Period: 95.6 minutes
Semi major axis: 6927 km
RCS: Unknown
Launch date: June 13, 2020
Source: United States (US)
Launch site: AIR FORCE EASTERN TEST RANGE (AFETR)
aabbcc
Your satellite tracking list
Your tracking list is empty




NASA's NSSDC Master Catalog

Two Line Element Set (TLE):
1 45757U 20038AD  20265.83334491 -.00019637  00000-0 -13319-2 0  9998
2 45757  52.9853 171.9618 0001527  70.0795 243.8379 15.05589457 16921
Source of the keplerian elements: AFSPC